This is the latest recevied weather packets stored in our database for station/object K6MBY. If no packets are shown the sender has not sent any weather packets the latest 10 day(s).
| Time | Temp. | Humidity | Pressure | Rain* | Wind** | Luminosity | Snow |
|---|---|---|---|---|---|---|---|
| 1777828241 | 18.89° C | 62% | 1018.3 hPa | 0 mm | - | 638 W/m² | - |
| 1777827938 | 18.89° C | 62% | 1018.3 hPa | 0 mm | - | 629 W/m² | - |
| 1777827635 | 19.44° C | 60% | 1018.6 hPa | 0 mm | - | 617 W/m² | - |
| 1777827332 | 19.44° C | 53% | 1018.4 hPa | 0 mm | - | 607 W/m² | - |
| 1777827028 | 20° C | 51% | 1018.4 hPa | 0 mm | - | 587 W/m² | - |
| 1777826726 | 20.56° C | 50% | 1018.6 hPa | 0 mm | - | 570 W/m² | - |
| 1777826422 | 20.56° C | 51% | 1018.6 hPa | 0 mm | - | 508 W/m² | - |
| 1777826114 | 20.56° C | 52% | 1018.6 hPa | 0 mm | - | 513 W/m² | - |
| 1777825811 | 20.56° C | 52% | 1018.5 hPa | 0 mm | - | 480 W/m² | - |
| 1777825508 | 20° C | 54% | 1018.7 hPa | 0 mm | - | 465 W/m² | - |
| 1777825205 | 19.44° C | 53% | 1018.7 hPa | 0 mm | - | 394 W/m² | - |
| 1777824902 | 20° C | 54% | 1018.7 hPa | 0 mm | - | 272 W/m² | - |
| 1777824598 | 20° C | 52% | 1018.7 hPa | 0 mm | - | 424 W/m² | - |
| 1777824295 | 20° C | 53% | 1018.8 hPa | 0 mm | - | 402 W/m² | - |
| 1777823991 | 20° C | 54% | 1018.7 hPa | 0 mm | - | 423 W/m² | - |
| 1777823688 | 20.56° C | 53% | 1018.7 hPa | 0 mm | - | 422 W/m² | - |
| 1777823384 | 20° C | 53% | 1018.7 hPa | 0 mm | - | 434 W/m² | - |
| 1777823083 | 20° C | 52% | 1018.7 hPa | 0 mm | - | 422 W/m² | - |
| 1777822780 | 20° C | 54% | 1018.6 hPa | 0 mm | - | 403 W/m² | - |
| 1777822478 | 19.44° C | 55% | 1018.8 hPa | 0 mm | - | 386 W/m² | - |
| 1777822175 | 18.89° C | 57% | 1018.7 hPa | 0 mm | - | 364 W/m² | - |
| 1777821872 | 18.89° C | 57% | 1018.8 hPa | 0 mm | - | 346 W/m² | - |
| 1777821570 | 18.89° C | 57% | 1018.8 hPa | 0 mm | - | 327 W/m² | - |
| 1777821268 | 18.89° C | 57% | 1018.9 hPa | 0 mm | - | 309 W/m² | - |
| 1777820964 | 18.89° C | 57% | 1018.8 hPa | 0 mm | - | 291 W/m² | - |
* Rain latest hour (hover to see other rain measurements)
** Current wind speed in m/s (hover to see current wind gust speed)